Weather observations for the past three days for
Muscle Shoals, North West Alabama Regional Airport
Metric (Imperial)
Date Time (cdt) Wind (kph) Vis. (km) Weather Sky Cond. Temperature (ºC) Relative Humidity Wind Chill (°C) Heat Index (°C) Pressure Precipitation (cm)
Air Dwpt 6 hour altimeter (cm) sea level (mb) 1 hr 3 hr 6 hr
Max. Min.
16 07:53 SE 9 16.09 Fair CLR 27.8 22.2 72% 30 76.28 1016.0
16 06:53 Calm 12.87 Fair CLR 25.6 22.2 25.6 22.8 82% 27 76.23 1015.4
16 05:53 SE 7 9.66 Fog/Mist CLR 23.3 21.7 91% 76.2 1015.0
16 04:53 E 7 12.87 Fair CLR 23.3 21.7 91% 76.12 1014.2
16 03:53 E 6 12.87 Fair CLR 23.3 21.1 88% 76.1 1013.6
16 02:53 Calm 16.09 Fair CLR 24.4 22.2 88% 25 76.07 1013.4
16 01:53 Calm 16.09 Fair CLR 23.9 21.7 88% 24 76.1 1013.7
16 00:53 S 6 16.09 Fair CLR 25.6 21.7 33.9 25 79% 27 76.12 1014.2
15 23:53 Calm 16.09 Fair CLR 25.6 22.2 82% 27 76.12 1014.2
15 22:53 Calm 16.09 Fair CLR 26.7 22.2 76% 29 76.12 1014.2
15 21:53 Calm 16.09 Fair CLR 27.2 22.2 74% 30 76.1 1013.9
15 20:53 Calm 16.09 Fair CLR 28.3 22.2 70% 31 76.07 1013.3
15 19:53 Calm 16.09 Fair CLR 31.1 21.7 57% 34 76.05 1012.9
15 18:53 E 6 16.09 Fair CLR 33.9 20 36.7 32.8 44% 36 76.05 1013.0
15 17:53 E 6 16.09 Fair CLR 34.4 20 43% 37 76.05 1012.9
15 16:53 Calm 16.09 Mostly Cloudy FEW060 SCT090 BKN110 34.4 20 43% 37 76.07 1013.3
15 15:53 Calm 16.09 Mostly Cloudy FEW060 BKN090 33.9 20 44% 36 76.1 1013.8
15 14:53 NE 9 16.09 A Few Clouds FEW055 FEW095 35 21.1 44% 39 76.1 1013.7
15 13:53 SE 9 16.09 A Few Clouds FEW055 35 20 41% 38 76.15 1014.3
15 12:53 Vrbl 6 16.09 Fair CLR 34.4 19.4 35.6 23.9 41% 36 76.17 1014.8
15 11:53 Vrbl 7 16.09 Fair CLR 33.9 20.6 46% 37 76.23 1015.3
15 10:53 Calm 16.09 Fair CLR 32.2 20.6 50% 35 76.23 1015.6
15 09:53 Vrbl 7 16.09 Fair CLR 31.7 21.1 53% 35 76.25 1015.7
15 08:53 E 7 16.09 Fair CLR 30 22.2 63% 33 76.25 1015.8
15 07:53 Calm 12.87 Fair CLR 27.2 22.2 74% 30 76.25 1015.7
15 06:53 Calm 9.66 Fair with Haze CLR 23.9 21.1 23.9 20.6 84% 24 76.2 1015.1
15 04:53 Calm 9.66 Fog/Mist CLR 21.7 19.4 87% 76.12 1014.0
15 03:53 Calm 11.27 Fair CLR 22.2 20 87% 76.1 1013.8
15 02:53 Calm 12.87 Fair CLR 22.8 20.6 87% 76.07 1013.5
15 01:53 Calm 14.48 Fair CLR 22.8 20.6 87% 76.1 1013.8
15 00:53 Calm 16.09 Fair CLR 23.3 20 32.8 23.3 82% 76.1 1013.8
14 23:53 Calm 16.09 Fair CLR 24.4 20.6 79% 25 76.12 1014.0
14 22:53 Calm 16.09 Fair CLR 24.4 20.6 79% 25 76.12 1014.1
14 21:53 Calm 16.09 Fair CLR 26.7 20.6 69% 28 76.1 1013.8
14 20:53 Calm 16.09 Fair CLR 27.8 20 63% 29 76.07 1013.4
14 19:53 NW 6 16.09 Fair CLR 30.6 18.9 50% 32 76.05 1013.1
14 18:53 NW 9 16.09 Fair CLR 32.8 18.9 35.6 32.8 44% 34 76.02 1012.8
14 17:53 NW 9 16.09 Partly Cloudy SCT060 34.4 19.4 41% 36 76 1012.6
14 16:53 W 7 16.09 Fair CLR 34.4 17.2 36% 35 76 1012.5
14 15:53 SW 15 16.09 Fair CLR 35 18.3 37% 36 76 1012.5
14 14:53 Calm 16.09 Fair CLR 34.4 18.9 40% 36 76.05 1012.9
14 13:53 S 11 16.09 Fair CLR 33.3 18.3 41% 34 76.05 1013.2
14 12:53 SE 7 16.09 Fair CLR 33.3 17.8 33.3 22.2 40% 34 76.1 1013.7
14 11:53 Vrbl 7 16.09 Fair CLR 32.2 18.9 45% 34 76.12 1014.0
14 10:53 NW 9 16.09 Fair CLR 32.2 19.4 47% 34 76.17 1014.9
14 09:53 Calm 16.09 Fair CLR 30 20 55% 32 76.17 1014.7
14 08:53 Calm 16.09 Fair CLR 27.8 20.6 65% 30 76.23 1015.3
14 07:53 Calm 16.09 Fair CLR 25 19.4 71% 26 76.2 1015.0
14 06:53 Calm 16.09 Fair CLR 22.2 19.4 23.3 20 84% 76.23 1015.6
14 05:53 Calm 9.66 Fog/Mist CLR 20.6 18.9 90% 76.17 1014.7
14 04:53 Calm 16.09 Fair CLR 21.1 18.9 87% 76.12 1014.2
14 03:53 Calm 14.48 Fair CLR 21.7 20 90% 76.15 1014.5
14 02:53 Calm 16.09 Fair CLR 22.2 19.4 84% 76.15 1014.3
14 01:53 Calm 16.09 Fair CLR 21.7 18.9 84% 76.12 1014.1
14 00:53 Calm 16.09 Fair CLR 22.8 19.4 31.7 21.7 81% 76.12 1014.1
13 23:53 Calm 16.09 Fair CLR 22.8 19.4 81% 76.07 1013.5
13 22:53 Calm 16.09 Fair CLR 23.9 20 79% 24 76.1 1013.6
13 21:53 Calm 16.09 Fair CLR 24.4 20 77% 25 76.05 1013.2
13 20:53 Calm 16.09 Fair CLR 25 19.4 71% 26 76.02 1012.7
13 19:53 Calm 16.09 Fair CLR 28.3 18.9 57% 30 76.02 1012.8
13 18:53 NW 7 16.09 Fair CLR 31.7 17.2 33.9 31.7 42% 32 76.05 1013.1
13 17:53 W 9 16.09 Fair CLR 32.8 16.1 37% 33 76.05 1013.0
13 16:53 Calm 16.09 Fair CLR 32.8 16.1 37% 33 76.05 1013.2
13 15:53 N 11 16.09 Overcast OVC060 33.9 16.1 34% 34 76.07 1013.5
13 14:53 Vrbl 9 16.09 Fair CLR 32.8 17.8 41% 34 76.1 1013.8
13 13:53 Vrbl 9 16.09 A Few Clouds FEW060 32.8 18.3 42% 34 76.12 1014.3
13 12:53 SE 11 16.09 Fair CLR 32.2 17.2 32.2 20 41% 33 76.15 1014.5
13 11:53 Vrbl 9 16.09 Fair CLR 30.6 16.7 43% 31 76.15 1014.6
13 10:53 Vrbl 6 16.09 Fair CLR 30 17.8 48% 31 76.17 1014.8
13 09:53 E 6 16.09 Fair CLR 27.8 18.3 56% 29 76.17 1015.0
13 08:53 Calm 16.09 Fair CLR 25.6 17.8 62% 27 76.2 1015.3
Date Time (cdt) Wind (kph) Vis. (km) Weather Sky Cond. Air Dwpt Max. Min. Relative Humidity Wind Chill (°C) Heat Index (°C) altimeter (cm) sea level (mb) 1 hr 3 hr 6 hr
6 hour
Temperature (ºC) Pressure Precipitation (cm)